STARLINK-2399, 47816

Orbit data source: Space-Track

STARLINK-2399, 47816 is a payload satellite owned by SpaceX/Seattle (US) in LEO that was launched on Thu, 11 Mar 2021 UTC via an FALCON 9 launch vehicle from the Air Force Eastern Test Range (AFETR). Payload-class satellites include a variety of spacecraft equipped with specific instruments for various scientific and technological missions. These include communications satellites like Starlink; space stations such as the ISS; scientific satellites like the Hubble; Earth observation satellites from companies like Planet Labs, Umbra, and HawkEye 360; GPS; miniature CubeSats for education and research; and military/defense satellites.

Loading next visibility...
Identifier
47816, 2021-018AF
Orbit
LEO
Country
Flag of USUS
Related business
Manufacturer
SpaceX/Seattle
Mission
Operational Commercial Communications
Bus & Motor
STARLINK, Unknown motor
Mass
260 kg wet, ~248 kg dry
Launch date (UTC)
2021-03-11 (5 years ago)
Launch vehicle
FALCON 9
Launch site
Air Force Eastern Test Range (AFETR)
Object type
Payload
Rocket body
Debris
Shape & HBR
Box + 1 Pan, 10.1 m
Radar Cross Section
13.562 m², Large (>1 m²)

Expand to show TLE details & history
Last TLE update: 2 days ago

TLE from 2 days ago
0 STARLINK-2399
1 47816U 21018AF  26171.20030810  .00004067  00000-0  14275-3 0  9998
2 47816  53.1601 141.2857 0001222  86.8003 273.3138 15.31700267292196
Epoch: 2026-06-20T04:48Z
TLE epoch observation values (Epoch: 2026-06-20T04:48:26.619Z)
Latitude
-0.00006°
Longitude
160.7564°
Altitude
471.591 km
Speed
7.631 km/s
True Right ascension
09h 25m 08s
True Declination
0° 00' 00"
Sunlit
Object was in daylight at epoch
Visualization orbit readout
Latitude
Unknown
Longitude
Unknown
Altitude
Unknown
Speed
Unknown
Apparent Right ascension
Unknown
Apparent Declination
Unknown
Sunlit
N/A
Visualization observer readout
Local Sidereal Time
21:42:23
Azimuth
Unknown
Elevation
Unknown
Doppler factor
Unknown
Orbital elements
Apogee altitude
471.833 km
Perigee altitude
470.159 km
Semi-major axis
6,849.133 km
Eccentricity
0.00012
Inclination
53.1601°
RAAN
141.2857°
Arg. of periapsis
86.8003°
True anomaly
273.29982°
Mean anomaly
273.3138°
Eccentric anomaly
273.30681°
Mean motion
3.82904 °/min
Orbital period
94.02 mins
BSTAR
0.00014275
Loading maneuver chart data...
Computing Atmospheric mass density...
Loading historical data...
Loading historical data...
Loading historical data...
Loading historical data...
Loading historical data...
Loading historical data...
Loading historical data...

Documentation

Showing up to 5 results
|